Vertical_Velocity
-1 0 -1 -1 -3 -1 2 -2 0 -2 -1 -0 -3 -4 -2 -3 1 -0 -5 -0 -1 -1 -1 -1 -2 -1 4 -1 0 1 -1 -2 -2 -3 -2 1 1 2 -3 1 -1 -6 -0 1 1
0 -2 -1 -1 -3 -2 -1 -0 -2 -3 -2 -1 -2 -1 -1 -7 -1 1 -3 -3 -5 2 -2 0 -3 -3 3 0 -3 -1 0 1 1 0 -2 -2 4 7 2 1 -4 -5 2 -3 -2
2 2 0 1 -2 -2 -2 -3 0 -3 -1 -3 1 -0 -1 -3 -4 -2 -1 0 1 -1 -2 2 -2 1 -1 -2 4 -5 -1 7 1 4 4 6 3 -7 3 -0 -8 -1 -0 1 2
0 1 1 0 0 -2 -0 0 -3 -6 -2 -1 0 -1 -2 -1 -6 -1 -2 1 -2 1 0 3 -1 4 3 -1 7 0 -3 -0 -2 2 1 1 5 -2 -1 2 -1 -1 -4 0 3
-2 1 -0 -2 -2 -2 -2 1 -2 -2 -2 -3 -3 -0 1 -1 -0 -3 -4 1 -1 0 -3 -1 4 0 0 -5 2 -4 2 1 -3 -3 2 3 3 9 -2 0 -3 -0 -1 -3 -0
0 -4 -2 -1 -2 -1 1 1 0 -3 -4 -1 -3 -4 -1 -6 0 1 -3 4 -4 -1 1 -2 0 -0 0 2 5 2 -5 -1 -4 2 5 -3 -2 -0 3 1 0 0 -1 -3 1
2 -0 4 -3 1 -4 -0 4 -2 -1 -0 -0 -3 -2 -4 -2 0 -2 -1 -4 2 2 1 -3 -3 5 -4 2 5 -1 -1 1 -2 -3 2 4 3 -20 6 2 1 -0 -1 -3 -2
2 5 1 -3 0 -5 -4 -4 -2 -4 -0 0 -4 -1 -15 6 1 1 -7 1 1 2 -1 5 -2 -0 4 1 -1 3 3 1 1 1 -4 2 -7 -1 7 -1 -1 1 1 -2 -1
-12 -1 -11 -8 -4 -2 -2 -2 2 -3 -2 1 -1 4 -10 -5 -0 1 -4 -3 1 5 -4 5 3 0 -0 -4 4 -2 0 -3 -1 5 6 -1 -9 12 4 4 1 -3 -1 -1 1
-4 3 3 -7 -8 -5 -0 0 -0 10 -0 -5 -8 0 9 -11 -3 4 0 -2 -3 7 -4 -3 4 4 -4 -4 -20 -1 -2 -0 -6 -8 6 7 -5 10 -1 1 1 -0 -3 0 -1
3 -1 0 1 2 2 2 7 5 -6 -6 4 -4 -7 -4 2 -3 -1 -4 -3 3 -1 -1 1 4 -16 -11 14 7 1 2 -1 -8 4 -3 2 -1 -6 11 14 -4 1 -1 -2 1
6 -5 8 3 4 0 -1 -5 -8 -8 -18 -6 -6 -13 2 1 -15 -0 6 -3 0 -4 7 1 -9 -2 8 2 5 4 2 -7 -5 3 6 -0 -7 -9 6 -5 4 6 -4 -4 -4
-3 0 -1 -6 -1 -1 -5 -6 1 0 -6 -13 3 -12 5 -1 -11 -6 -5 -3 -1 2 -3 -3 6 -6 1 8 6 -2 -4 -7 -1 8 7 1 -15 -10 1 -4 1 -0 7 5 -2
6 6 0 -1 4 1 -7 0 2 -1 -7 -10 -15 -16 -3 -0 -19 9 -2 0 1 -1 4 1 1 -6 -1 1 5 4 2 6 1 10 -4 11 -14 -13 -6 2 1 -2 0 1 -5
-0 0 -1 -1 2 -0 -1 -2 8 -7 -1 9 4 -6 -2 5 1 2 4 1 -3 3 4 -9 -0 -4 4 -10 15 -3 5 8 8 1 9 8 8 -24 -4 5 -12 3 -0 0 -2
-1 1 -5 1 1 -1 -4 6 -1 -2 -18 1 3 -2 -1 4 3 -1 2 6 17 8 -5 5 5 -2 -3 -2 5 7 6 4 4 9 8 -1 6 -22 -17 -21 1 -1 4 3 1
-3 -1 -4 8 1 2 4 3 -4 -4 -4 7 10 -0 4 6 8 5 -2 -4 -12 -2 -10 20 -12 -5 -2 -1 7 8 11 -2 4 6 -10 -11 7 -33 7 9 -2 4 9 10 2
-0 -7 21 9 2 0 3 10 -1 -2 5 2 2 7 -5 1 -5 4 0 -5 -3 9 9 4 -6 10 -2 -23 -21 1 11 -7 -5 -2 -5 0 -13 -30 -2 -4 -1 -4 11 9 -3
-1 13 4 13 5 9 -1 8 -12 5 1 -8 6 -2 -3 2 4 1 6 -5 4 4 1 2 -18 15 4 4 19 -5 -13 7 8 7 1 -4 -9 -10 0 0 -6 -4 -2 -0 4
-3 -1 9 0 9 13 17 -17 -2 14 2 2 -5 -4 -3 1 1 13 1 5 -0 7 22 -15 -10 10 0 5 -7 2 4 20 15 1 0 -10 -3 -17 -4 1 3 -7 -8 1 1
3 0 -2 5 4 13 7 -9 2 2 6 2 -4 -2 -2 -3 4 8 -1 2 4 7 11 10 29 -51 9 3 3 6 4 7 18 0 -6 -2 -35 4 -15 0 -3 -3 -7 1 3
-0 -3 -4 2 -0 3 1 -4 3 -3 3 3 -3 1 -4 2 -2 -2 3 -1 -3 -1 -9 5 3 -14 -20 7 6 20 9 25 21 -18 2 1 -81 10 -2 -0 3 2 -1 -3 3
-1 1 2 4 -8 -8 -5 -4 -10 13 3 -4 -3 9 9 -4 2 2 1 -4 1 -13 -2 -4 7 -2 -26 -7 2 -3 -15 1 13 23 -14 15 -50 10 -1 -2 -9 -3 1 0 9
-1 0 -1 -2 -3 0 -1 -8 -13 4 3 5 -8 -1 2 -7 6 -14 -8 -10 -5 2 8 9 -1 5 1 12 9 1 9 -5 14 20 -17 -17 -11 -3 -1 -1 3 1 -1 -2 -1
2 -2 -3 -7 -8 -4 1 -7 -1 2 -0 6 -19 -8 4 1 3 -18 5 -2 -9 6 2 3 -2 18 5 -8 -6 10 -2 4 1 -3 16 -29 11 3 4 -1 1 7 -2 -3 -6
-2 -0 1 -1 -1 3 5 -7 -6 11 -1 2 -13 13 14 -13 -5 -3 10 9 8 -5 -1 -2 -8 -9 -12 5 -10 -12 -5 -5 6 2 8 9 -5 21 35 13 -5 5 6 -8 -3
2 -0 3 2 -1 -2 -8 -7 10 1 -3 10 -7 2 -14 -19 23 4 14 -9 -3 -3 -3 13 2 -0 -5 -4 -0 -7 5 1 -14 -2 -1 -8 -9 3 -3 -0 -6 -5 -1 -5 -2
Height
3136 3137 3138 3139 3140 3140 3141 3142 3142 3143 3143 3143 3142 3142 3141 3142 3142 3142 3142 3142 3141 3140 3140 3140 3140 3141 3141 3141 3142 3142 3144 3144 3145 3146 3146 3147 3146 3143 3147 3148 3148 3149 3150 3151 3152
3130 3132 3133 3134 3135 3136 3136 3137 3137 3138 3138 3138 3138 3138 3138 3139 3140 3138 3140 3139 3136 3136 3137 3136 3136 3138 3138 3138 3138 3140 3140 3142 3143 3142 3143 3144 3146 3145 3144 3143 3146 3148 3148 3149 3150
3125 3126 3127 3128 3129 3130 3131 3132 3132 3133 3133 3134 3133 3134 3134 3135 3138 3135 3135 3134 3134 3133 3133 3132 3132 3134 3135 3136 3135 3135 3137 3141 3141 3141 3141 3142 3142 3142 3142 3140 3144 3145 3147 3148 3148
3119 3120 3121 3122 3123 3124 3125 3127 3127 3127 3128 3128 3128 3129 3130 3132 3137 3132 3133 3132 3131 3131 3131 3130 3130 3130 3131 3132 3133 3132 3134 3137 3138 3139 3140 3141 3141 3139 3139 3140 3139 3141 3143 3145 3146
3113 3113 3115 3116 3116 3119 3120 3122 3122 3123 3122 3123 3123 3124 3126 3127 3131 3128 3129 3129 3128 3129 3128 3128 3126 3126 3127 3129 3129 3127 3131 3131 3135 3136 3137 3138 3139 3138 3136 3137 3138 3138 3139 3141 3143
3104 3106 3109 3110 3112 3113 3115 3116 3117 3118 3117 3119 3118 3118 3119 3121 3124 3122 3125 3126 3125 3126 3124 3124 3123 3123 3124 3125 3126 3125 3126 3127 3130 3132 3133 3134 3135 3135 3132 3134 3136 3135 3136 3138 3141
3098 3100 3102 3103 3105 3107 3109 3110 3111 3112 3112 3113 3114 3114 3113 3119 3117 3117 3119 3121 3122 3121 3122 3120 3120 3122 3119 3122 3122 3123 3124 3122 3123 3127 3128 3129 3127 3129 3129 3130 3131 3132 3133 3136 3137
3090 3092 3094 3096 3098 3099 3102 3104 3105 3107 3108 3108 3109 3108 3103 3114 3112 3112 3113 3115 3116 3116 3117 3116 3116 3117 3116 3119 3119 3119 3119 3118 3120 3122 3124 3125 3119 3129 3124 3124 3126 3127 3126 3129 3131
3082 3084 3086 3089 3091 3093 3095 3097 3098 3100 3103 3103 3104 3105 3099 3105 3107 3106 3106 3108 3109 3110 3112 3112 3111 3110 3111 3116 3117 3114 3110 3111 3116 3118 3120 3119 3114 3123 3118 3118 3119 3120 3122 3123 3125
3075 3076 3079 3082 3084 3085 3086 3088 3092 3093 3095 3096 3094 3102 3098 3100 3101 3101 3102 3104 3105 3105 3107 3107 3104 3103 3106 3110 3104 3106 3106 3106 3108 3115 3115 3113 3108 3116 3114 3110 3110 3113 3115 3117 3120
3070 3070 3070 3074 3077 3079 3082 3082 3087 3087 3087 3090 3087 3087 3088 3092 3096 3096 3097 3099 3101 3101 3102 3100 3098 3095 3101 3102 3103 3103 3103 3103 3103 3108 3106 3104 3103 3106 3107 3105 3104 3105 3108 3111 3114
3060 3062 3065 3068 3072 3072 3075 3076 3078 3082 3077 3078 3079 3076 3083 3085 3082 3088 3091 3094 3096 3096 3097 3094 3087 3096 3098 3098 3098 3097 3096 3095 3097 3101 3100 3098 3093 3099 3095 3096 3098 3100 3102 3105 3108
3052 3055 3058 3061 3064 3065 3068 3069 3071 3071 3069 3064 3071 3069 3073 3077 3070 3077 3085 3085 3084 3086 3090 3086 3085 3090 3093 3092 3091 3090 3089 3090 3091 3096 3093 3091 3084 3087 3089 3088 3091 3092 3096 3099 3102
3045 3047 3051 3052 3058 3058 3060 3064 3063 3063 3067 3053 3059 3059 3063 3066 3060 3068 3073 3076 3074 3075 3083 3078 3078 3082 3087 3085 3088 3079 3084 3086 3087 3090 3086 3087 3072 3076 3081 3081 3080 3085 3085 3090 3094
3038 3041 3043 3046 3051 3053 3056 3057 3058 3061 3067 3055 3048 3049 3053 3058 3056 3059 3064 3063 3063 3067 3073 3067 3070 3076 3077 3079 3083 3073 3081 3082 3083 3082 3084 3077 3080 3062 3074 3070 3072 3075 3079 3083 3087
3032 3034 3038 3042 3046 3048 3051 3054 3053 3062 3056 3048 3046 3045 3050 3051 3052 3054 3056 3057 3061 3060 3062 3062 3069 3069 3071 3075 3074 3073 3078 3077 3076 3076 3072 3068 3076 3043 3058 3061 3067 3069 3071 3075 3078
3026 3030 3036 3038 3042 3044 3047 3050 3055 3053 3048 3047 3044 3043 3049 3050 3050 3049 3051 3051 3053 3054 3050 3055 3055 3061 3065 3067 3069 3070 3070 3073 3072 3069 3051 3060 3068 3029 3049 3054 3059 3061 3064 3068 3071
3022 3027 3030 3033 3036 3040 3044 3047 3046 3040 3041 3043 3044 3043 3044 3048 3046 3046 3047 3048 3051 3051 3048 3046 3048 3050 3051 3052 3057 3059 3060 3057 3056 3057 3049 3057 3044 3037 3043 3050 3054 3056 3060 3061 3062
3018 3022 3025 3028 3033 3035 3040 3041 3036 3037 3039 3040 3042 3042 3042 3044 3046 3043 3044 3045 3047 3048 3051 3048 3040 3042 3043 3048 3053 3049 3050 3049 3051 3048 3048 3040 3035 3037 3039 3042 3046 3048 3049 3050 3051
3012 3017 3021 3025 3030 3032 3033 3032 3032 3033 3036 3037 3040 3039 3040 3041 3042 3042 3041 3043 3044 3046 3048 3045 3040 3036 3039 3042 3040 3039 3046 3047 3045 3049 3047 3033 3032 3027 3029 3035 3037 3040 3042 3041 3042
3008 3011 3016 3019 3025 3027 3022 3024 3025 3030 3033 3036 3036 3039 3038 3039 3039 3037 3037 3039 3040 3041 3042 3041 3042 3025 3035 3030 3029 3034 3033 3036 3035 3034 3030 3029 3024 3023 3025 3029 3030 3033 3035 3034 3035
3002 3007 3011 3014 3019 3019 3019 3020 3024 3026 3030 3032 3031 3031 3035 3037 3036 3036 3034 3035 3035 3036 3038 3037 3034 3025 3019 3025 3027 3026 3026 3028 3024 3025 3022 3022 3013 3018 3019 3021 3022 3025 3028 3031 3032
3000 3004 3006 3009 3009 3012 3015 3016 3019 3020 3023 3026 3027 3027 3031 3034 3035 3031 3031 3032 3033 3035 3034 3031 3027 3022 3011 3015 3016 3019 3020 3021 3020 3018 3013 3017 3011 3014 3014 3016 3018 3019 3021 3025 3027
2999 3000 3002 3004 3005 3008 3011 3013 3013 3013 3016 3019 3021 3024 3026 3026 3027 3025 3026 3028 3030 3031 3029 3026 3023 3022 3017 3017 3015 3013 3011 3011 3010 3009 3010 3008 3007 3008 3008 3012 3013 3014 3016 3018 3022
2993 2995 2997 3000 3002 3005 3007 3007 3007 3007 3010 3014 3014 3016 3019 3020 3020 3019 3021 3022 3023 3023 3022 3023 3021 3018 3012 3011 3012 3008 3004 3003 2997 2998 2999 3003 3006 3005 3003 3003 3006 3008 3011 3014 3017
2988 2991 2993 2996 2998 3000 3000 3000 3002 3004 3006 3007 3008 3010 3012 3013 3012 3012 3015 3015 3015 3015 3015 3015 3015 3015 3011 3005 3003 3004 3001 2996 2992 2992 2990 2995 2995 2999 3000 2995 2998 3001 3003 3006 3011
2983 2985 2989 2990 2990 2993 2993 2996 2998 2999 2999 2999 3002 3003 3002 3001 3006 3007 3008 3008 3009 3009 3011 3011 3009 3009 3005 3005 3000 2997 2991 2994 2991 2988 2988 2988 2988 2989 2986 2985 2989 2995 2998 3000 3003